Jackpot Winner Texas Poker

Jackpot hanya dapat di beli di awal sebelum periode tersebut berjalan dan jika berhasil maka anda dapat melihat di sisi kiri bawah atau kiri atas akan terdapat notifikasi bahwa jackpot anda berhasil di beli.

Jika anda membeli jackpot di tengah permainan maka pembelian jackpot akan berlaku untuk periode selanjutnya.

Kini Telah hadir Jackpot SUPER ROYAL FLUSH

Kini Telah hadir Jackpot 2000 (khusus table VIP keatas).

Ikutilah global jackpot yang tersedia di system kami, dengan system jackpot terbaru dan pertama di indonesia, anda dapat membeli jackpot dengan harga 100 rupiah saja dan menangkan hadiahnya hingga puluhan juta rupiah.

Jackpot bukanlah suatu keharusan untuk dibeli, namun kami memberikan suatu fitur tambahan untuk member tercinta dari www.npjaya.com.

Terdapat tiga pilihan harga jackpot yang bisa anda beli yaitu :100,500,1000 dan 2000(khusus table VIP Keatas) rupiah.

Hadiah dari Multi jackpot system www.npjaya.com

  1. full house x 10 harga jackpot yang anda beli.
      (contoH:anda membeli 1000 maka:1000 X10 = 10.000)
  2. four of kind x 250 harga jackpot yang anda beli
      (contoH:anda membeli 1000 maka:1000 X250 = 250.000)
  3. Straight flush x 1200
      (contoH:anda membeli 1000 maka:1000 X1200 = 1.200.000)
  4. Royal flush x 10000 harga jackpot yang anda beli
      (contoH:anda membeli 1000 maka:1000 X10000 = 10.000.000)
  5. SUPER ROYAL FLUSH x 30000 harga jackpot yang anda beli
      (contoH:anda membeli 1000 maka:1000 X30000 = 30.000.000)

Note: Untuk mendapatkan jackpot di satu periode, pemain harus menyelesaikan permainan di periode tersebut, minimal 2 pemain. Jika semua pemain 'fold' jackpot tidak akan diturunkan.


Kondisi kartu

  1. full house adalah kondisi kartu dimana kartu anda dan kartu tengah dengan total 7 kartu bisa mendapatkan nilai 5 kartu dengan kombinasi 1 tris(three of kind) dan 1 pair, contoh 3 kartu 10 dan 2 kartu 5
  2. Four of kind adalah kondisi kartu dimana kartu anda dan kartu tengah dengan total 7 kartu bisa mendapatkan nilai 5 kartu dengan kombinasi 4 kartu yang sama jumlah dan 1 kartu apapun juga contoh anda mendapatkan 4 buah kartu angka 3 dan 1 kartu apapun.
  3. Straight flush adalah kondisi kartu dimana kartu anda dan kartu tengah dengan total 7 kartu bisa mendapatkan nilai 5 kartu dengan kombinasi seri / staright dengan kembang yang sama contoh : urutan kartu dari angka 5, 6, 7, 8 , 9 10 dengan kembang yg sama misalnya as hati
  4. Royal flush adalah kondisi kartu dimana kartu anda dan kartu tengah dengan total 7 kartu bisa mendapatkan nilai 5 kartu dengan kombinasi seri / staright dengan kembang yang sama tetapi kartu tersebut haruslah dimulai dari 10. contoh 10, Queen, Jack, King dan aces dengan kembang yang sama
  5. Super Royal flush adalah kondisi kartu dimana Kedua kartu anda digabung dengan 3 kartu pertama meja haruslah royal flush. contoh kartu anda10,Queen dan 3 kartu pertama meja adalah Jack, King dan aces dengan kembang yang sama

Demikian adalah penjelasan dari Multi Jackpot www.npjaya.com terima kasih dan selamat bermain salam hoki dari kami


Jackpot Winner

TOP SUPER ROYAL FLUSH
No. Tanggal Nama Price Win
1 21/09 14:11 ROYALJOZZ Super Royal flush 60,000,000
2 21/09 13:43 BA_ATIYO Super Royal flush 6,000,000
3 21/09 12:23 B8EKCBJIYM Super Royal flush 3,000,000
4 21/09 08:32 TUPO25 Super Royal flush 3,000,000
5 21/09 07:21 SLOME898 Super Royal flush 30,000,000
TOP ROYAL FLUSH
No. Tanggal Nama Price Win
1 21/09 19:47 SUPINI02 Royal flush 2,000,000
2 21/09 19:45 K3K3Y888 Royal flush 2,000,000
3 21/09 19:41 ROCKET10 Royal flush 10,000,000
4 21/09 19:31 PERIUK111 Royal flush 20,000,000
5 21/09 19:05 AB9NO47D7V Royal flush 5,000,000
TOP STRAIGHT FLUSH
No. Tanggal Nama Price Win
1 21/09 19:52 EKKYBAJA72 Straight Flush 240,000
2 21/09 19:50 SIGARUTEN Straight Flush 240,000
3 21/09 19:50 EXTADINATA Straight Flush 600,000
4 21/09 19:50 SAEAS Straight Flush 2,400,000
5 21/09 19:49 PZN002 Straight Flush 120,000
LATEST JACKPOT
No. Tanggal Nama Price Win
1 21/09 19:53 CKQAG92DS8 Full House 2,000
2 21/09 19:53 L6FC94J6CH Full House 10,000
3 21/09 19:53 BEDENTOEM Full House 2,000
4 21/09 19:53 PASTI_ROYA Full House 1,000
5 21/09 19:53 CAPLANG0 Full House 2,000
6 21/09 19:53 MARU99 Full House 1,000
7 21/09 19:53 MEMET24 Full House 5,000
8 21/09 19:53 ARCI Full House 5,000
9 21/09 19:53 TOLBAKAU88 Full House 2,000
10 21/09 19:53 JUK Full House 5,000
11 21/09 19:53 JACKMINUTE Full House 2,000
12 21/09 19:53 HUYTAN90 Full House 5,000
13 21/09 19:53 B61PAY02110 Full House 500
14 21/09 19:53 ORLIN Full House 2,000
15 21/09 19:53 LUE15 Full House 2,000
16 21/09 19:53 SARMOEL Full House 5,000
17 21/09 19:53 B40L91574 Full House 5,000
18 21/09 19:53 JETZBERJR Full House 1,000
19 21/09 19:53 MACO_GAUL Full House 2,000
20 21/09 19:53 K0B3T Full House 1,000
21 21/09 19:53 SOLOGAME Full House 500
22 21/09 19:53 PILES Full House 10,000
23 21/09 19:53 DPUDI7VWNS Full House 1,000
24 21/09 19:53 SUGESTBRO Full House 2,000
25 21/09 19:53 ZAAZA99 Full House 10,000
26 21/09 19:53 D1CB5683 Full House 10,000
27 21/09 19:52 YAMO34 Full House 2,000
28 21/09 19:52 MAYOR125 Full House 2,000
29 21/09 19:52 G86TAKZLG5 Full House 10,000
30 21/09 19:52 AAL99 Full House 2,000
31 21/09 19:52 TBC10 Full House 1,000
32 21/09 19:52 TEMPOK000 Full House 2,000
33 21/09 19:52 HENBIN888 Full House 5,000
34 21/09 19:52 DANIMUR88 Full House 5,000
35 21/09 19:52 LOLITAS Full House 5,000
36 21/09 19:52 EMERY12 Full House 500
37 21/09 19:52 BTRASP Full House 20,000
38 21/09 19:52 WAPTRIC55 Full House 2,000
39 21/09 19:52 SUGA100 Full House 2,000
40 21/09 19:52 FAIR_KK Full House 1,000
41 21/09 19:52 YOULOU013 Full House 10,000
42 21/09 19:52 ERNES_ID Full House 2,000
43 21/09 19:52 BULE8888 Full House 20,000
44 21/09 19:52 LALOS99 Full House 20,000
45 21/09 19:52 SNI41728 Full House 20,000
46 21/09 19:52 GOBEKK Full House 1,000
47 21/09 19:52 RADICK10 Full House 10,000
48 21/09 19:52 WIRO08 Full House 5,000
49 21/09 19:52 HOKI323 Full House 10,000
50 21/09 19:52 BUTUHDANA Four Of A Kind 50,000
Dewa.FM